Location: Franzen
(48.6167°N, 15.3833°E)
Time: 08:04:37
(UTC+00:00)

Cosmos 1709 Rocket - Pass Details

Date: 06 August 2021
Orbit: 947 x 1002 km, 82.9° (Epoch: 18 September)

Event Time Altitude Azimuth Distance (km) Brightness Sun altitude
Exits shadow 23:51:19 24° 254° (WSW) 1,933 5.3 -24.1°
Maximum altitude 23:53:47 31° 292° (WNW) 1,671 5.3 -24.0°
Drops below altitude 10° 23:59:25 10° 353° (N) 2,787 7.3 -23.8°
Sets 00:02:18 0° 4° (N) 3,740 8.4 -23.7°
